Home   Weather   Hagerstown   Past weeks
Flag for USA

Past Weather in Hagerstown, Maryland, USA — Yesterday and Last 2 Weeks

Now
56 °F

Partly sunny.


Feels Like: 50 °F
Forecast: 55 / 47 °F
Wind: 30 mph from Northwest

Location: Washington County Regional Airport

Current Time: Oct 17, 2019 at 3:19:55 pm

Latest Report: Oct 17, 2019 at 1:53 pm


Visibility: 10 mi

Pressure: 29.69 "Hg

Humidity: 47%

Dew Point: 36 °F

Location of HagerstownLocation

Past Weather in Hagerstown — Graph

°F

Hagerstown Temperature Yesterday

Maximum temperature yesterday: 58 °F (at 8:53 am)
Minimum temperature yesterday: 51 °F (at 8:53 pm)
Average temperature yesterday: 56 °F

High & Low Weather Summary for the Past Weeks

 TemperatureHumidityPressure
High93 °F (Oct 2, 2:53 pm)93% (Oct 4, 3:12 am)30.46 "Hg (Oct 4, 3:12 am)
Low41 °F (Oct 13, 6:53 am)24% (Oct 14, 3:53 pm)29.56 "Hg (Oct 17, 2:53 am)
Average60 °F67%30.10 "Hg
* Reported Oct 2 1:53 pm — Oct 17 1:53 pm, Hagerstown. Weather by CustomWeather, © 2019

Note: Actual official high and low records may vary slightly from our data, if they occured in-between our weather recording intervals... More about our weather records

Advertising

Hagerstown Weather History for the Previous 24 Hours

Scroll right to see more
 ConditionsComfort  
Time TempWeatherWind HumidityBarometerVisibility
1:53 pm
Thu, Oct 17
56 °FPartly sunny.30 mph47%29.69 "Hg10 mi
12:53 pm55 °FPartly sunny.23 mph49%29.67 "Hg10 mi
11:53 am53 °FPartly sunny.36 mph52%29.68 "Hg10 mi
10:00 am53 °FScattered clouds.28 mph55%29.61 "Hg10 mi
8:53 am50 °FPartly sunny.30 mph59%29.64 "Hg10 mi
7:53 am49 °FScattered clouds.25 mph61%29.62 "Hg10 mi
6:53 am49 °FPassing clouds.25 mph64%29.60 "Hg10 mi
5:53 am50 °FPassing clouds.25 mph61%29.59 "Hg10 mi
4:53 am50 °FPassing clouds.22 mph61%29.57 "Hg10 mi
3:53 am51 °FPassing clouds.32 mph59%29.57 "Hg10 mi
2:53 am52 °FOvercast.24 mph57%29.56 "Hg10 mi
1:53 am52 °FOvercast.18 mph59%29.56 "Hg10 mi
12:53 am52 °FOvercast.21 mph59%29.57 "Hg10 mi
11:53 pm
Wed, Oct 16
51 °FOvercast.17 mph61%29.59 "Hg10 mi
10:53 pm51 °FPassing clouds.18 mph59%29.60 "Hg10 mi
9:53 pm51 °FPassing clouds.22 mph59%29.61 "Hg10 mi
8:53 pm51 °FPassing clouds.25 mph59%29.61 "Hg10 mi
7:53 pm53 °FMostly cloudy.23 mph59%29.62 "Hg10 mi
6:53 pm53 °FPassing clouds.20 mph64%29.59 "Hg10 mi
5:53 pm54 °FOvercast.20 mph67%29.60 "Hg10 mi
5:07 pm56 °FBroken clouds.21 mph81%29.57 "Hg10 mi
4:40 pm56 °FMostly cloudy.9 mph84%29.57 "Hg10 mi
3:53 pm55 °FLight rain. Overcast.3 mph90%29.59 "Hg7 mi
3:01 pm55 °FLight rain. Fog.6 mph93%29.58 "Hg3 mi
Weather by CustomWeather, © 2019

See weather overview